{"data":{"norad_id":62151,"epoch":"2026-09-21T00:58:01.010208Z","epoch_age_seconds":134732,"freshness":"FRESH","line1":"1 62151U 24224N   26264.04028947  .00012567  00000+0  46535-3 0  9999","line2":"2 62151  43.0018 135.0969 0001432 260.1710  99.8980 15.27585544102353","mean_motion":15.27585544,"eccentricity":0.0001432,"inclination_deg":43.0018,"raan_deg":135.0969,"arg_perigee_deg":260.171,"mean_anomaly_deg":99.898,"bstar":0.00046535,"rev_number":10235,"period_min":94.266406595427,"perigee_km":482.04997588768,"apogee_km":484.01501483115,"semimajor_km":6861.1694953594,"source":"CELESTRAK","updated_at":"2026-09-22T09:00:49.531597Z"}}